Other Surface Observations
Issued by NWS

Home | Current Version | Previous Version | Text Only | Print | Product List | Glossary On
Versions: 1 2 3 4 5 6 7 8 9 10 11 12 13 14 15 16 17 18 19 20 21 22 23 24 25 26 27 28 29 30 31 32 33 34 35 36 37 38 39 40 41 42 43 44 45 46 47 48 49 50
000
SXUS52 KTAE 251619
OSOTAE
OSOTAE
North Florida/South Alabama/Southwest Georgia Weather Roundup
National Weather Service Tallahassee Florida
1200 PM EDT THU MAY 25 2017

Note: "fair" indicates few or no clouds below 12,000 feet with no
significant weather and/or obstructions to visibility.

!FLZ017-115-028-034-025-251700
...North Florida...

CITY           SKY/WX    TMP DP  RH WIND       PRES   REMARKS
TALLAHASSEE    MOSUNNY   75  50  41 NW18G25   29.86S
APALACHICOLA   MOSUNNY   77  56  48 W15G26    29.87R
PERRY          SUNNY     75  51  43 W14G20    29.88R
CROSS CITY     SUNNY     77  50  38 W17G24    29.88R
JACKSONVILLE   MOSUNNY   77  51  40 W23G35    29.82S
$$

!FLZ112-006-005-002-011-251700
...Florida Panhandle...

CITY           SKY/WX    TMP DP  RH WIND       PRES   REMARKS
MARIANNA       SUNNY     74  50  42 W20G25    29.86S
BONIFAY        NOT AVBL
PANAMA CITY NW FAIR      75  46  35 W16G25    29.86S
TYNDALL AFB    SUNNY     75  49  38 W20G26    29.88R
TYND DRONE APT FAIR      74  50  43 W12G30    29.88R
DE FUNIAK SPR  FAIR      72  46  39 W9        29.89S
EGLIN AFB      MOSUNNY   75  45  33 NW21      29.88S
DESTIN         SUNNY     77  48  35 VRB6G17   29.88S
HURLBURT       SUNNY     75  42  31 W8G23     29.88R
CRESTVIEW      SUNNY     74  47  38 W13       29.90R
PENSACOLA      SUNNY     76  48  37 W14G21    29.88S
$$

!ALZ063-066-251700
...South Alabama...

CITY           SKY/WX    TMP DP  RH WIND       PRES   REMARKS
DOTHAN         MOSUNNY   71  50  47 W15G23    29.90R
OZARK CAIRNS   SUNNY     71  50  46 W7        29.87R
FT RUCKER HELI SUNNY     71  50  47 W9G16     29.87R
RUCKER HELI 3  FAIR      71  49  45 NW13G18   29.86S
RUCKER HELI 2  FAIR      70  49  47 W5        29.87R
FLORALA APT    MOSUNNY   72  48  42 VRB7      29.89S
ANDALUSIA      SUNNY     74  50  42 W10G20    29.88R
TROY           SUNNY     70  51  51 NW12G20   29.87S
EUFALA         FAIR      73  51  46 W8        29.84R
MOBILE         MOSUNNY   73  48  41 W8        29.91S
$$

!GAZ120>161-251700
...Southwest and South Central Georgia...

CITY           SKY/WX    TMP DP  RH WIND       PRES   REMARKS
THOMASVILLE    FAIR      73  55  53 NW10      29.86R
BAINBRIDGE     SUNNY     72  52  49 W14       29.86S
MOODY AFB      MOSUNNY   73  51  44 W15G21    29.83R
VALDOSTA       SUNNY     74  53  48 W9        29.85R
MOULTRIE       SUNNY     72  52  49 W13G23    29.86R
BLAKELY        SUNNY     72  52  49 W13G21    29.86S
ALBANY         MOSUNNY   72  52  49 W15G21    29.86R
TIFTON         FAIR      70  52  53 W14G26    29.84R
FITZGERALD     FAIR      71  54  55 W16       29.85R
CORDELE        FAIR      73  52  46 W16G25    29.84S
AMERICUS       FAIR      68  46  45 W17       29.85S
HOMERVILLE     FAIR     N/A N/A N/A W16       29.84S
$$

!GMZ750-755-770-775-251700
...Coastal and Buoy Obs...

STATION/POSITION TIME  TEMP    WIND        PRES    VSBY  WAVE
                       AIR SEA DIR/SP/G                  HT/PER
                 (UTC) (F)     (DEG/KT/KT) (MB)    (MI)  (FT/S)
KEATON BEACH     1600   71     300/ 14/ 16 1011.4R
CEDAR KEY        1600   74     330/ 10/ 15 1012.2R
C TOWER          1600   71     300/ 17/ 21 1012.4R
APALACHICOLA BUO 1550   73 76  310/ 12/ 16 1011.8R         6/ 8
PANAMA CITY BUOY 1550   74 77  300/ 12/ 14 1011.8R         5/ 6
MOBILE BUOY      1600   73 77  290/ 12/ 16 1012.6
ORANGE BCH AL BU 1550   70 76  300/ 12/ 16 1012.2R         3/ 7
$$




USA.gov is the U.S. government's official web portal to all federal, state and local government web resources and services.